,,,PA_Meas_PMT16A,,PR_Meas_QMR101_102,,RH_Meas_QMH101,,SR_Meas_QMS101,,TA_Meas_QMH101,,GenWind,,GenWind,
date,time,status,PA,status,PR,status,RH,status,SR,status,TA,status,DirAvg,status,SpdAvg,
2010-09-02, 00:00:04,VALID,1001.31,VALID,0,VALID,92.9898,VALID,0,VALID,22.724,VALID,273,VALID,0.267188,
2010-09-02, 00:01:04,VALID,1001.26,VALID,0,VALID,93.089,VALID,0,VALID,22.7647,VALID,273,VALID,0.411719,
2010-09-02, 00:02:04,VALID,1001.26,VALID,0,VALID,93.1195,VALID,0,VALID,22.7452,VALID,273,VALID,0.252344,
2010-09-02, 00:03:04,VALID,1001.27,VALID,0,VALID,93.1119,VALID,0,VALID,22.6867,VALID,273,VALID,0.00585938,
2010-09-02, 00:04:04,VALID,1001.26,VALID,0,VALID,93.15,VALID,0,VALID,22.685,VALID,273,VALID,0,
2010-09-02, 00:05:04,VALID,1001.23,VALID,0,VALID,93.1805,VALID,0,VALID,22.6867,VALID,273,VALID,0,
2010-09-02, 00:06:04,VALID,1001.25,VALID,0,VALID,93.2111,VALID,0,VALID,22.646,VALID,273,VALID,0,
2010-09-02, 00:07:04,VALID,1001.25,VALID,0,VALID,93.2416,VALID,0,VALID,22.6477,VALID,273,VALID,0,
2010-09-02, 00:08:04,VALID,1001.26,VALID,0,VALID,93.2797,VALID,0,VALID,22.6672,VALID,273,VALID,0,
2010-09-02, 00:09:04,VALID,1001.26,VALID,0,VALID,93.3103,VALID,0,VALID,22.6867,VALID,273,VALID,0.124219,
2010-09-02, 00:10:04,VALID,1001.26,VALID,0,VALID,93.3942,VALID,0,VALID,22.685,VALID,273,VALID,0.287109,
2010-09-02, 00:11:04,VALID,1001.28,VALID,0,VALID,93.4247,VALID,0,VALID,22.7257,VALID,273,VALID,0.70625,
2010-09-02, 00:12:04,VALID,1001.28,VALID,0,VALID,93.4781,VALID,0,VALID,22.7664,VALID,273,VALID,1.4043,
2010-09-02, 00:13:04,VALID,1001.26,VALID,0,VALID,93.4857,VALID,0,VALID,22.7257,VALID,100,VALID,1.29375,
2010-09-02, 00:14:04,VALID,1001.27,VALID,0,VALID,93.501,VALID,0,VALID,22.7257,VALID,100,VALID,1.51836,
2010-09-02, 00:15:04,VALID,1001.25,VALID,0,VALID,93.501,VALID,0,VALID,22.6867,VALID,102,VALID,1.10156,
2010-09-02, 00:16:04,VALID,1001.22,VALID,0,VALID,93.5163,VALID,0,VALID,22.685,VALID,102,VALID,0.830469,
2010-09-02, 00:17:04,VALID,1001.2,VALID,0,VALID,93.5086,VALID,0,VALID,22.7257,VALID,101,VALID,0.7375,
2010-09-02, 00:18:04,VALID,1001.21,VALID,0,VALID,93.5239,VALID,0,VALID,22.7257,VALID,88,VALID,0.876172,
2010-09-02, 00:19:04,VALID,1001.19,VALID,0,VALID,93.5163,VALID,0,VALID,22.7257,VALID,87,VALID,0.740625,
2010-09-02, 00:20:04,VALID,1001.17,VALID,0,VALID,93.5086,VALID,0,VALID,22.685,VALID,89,VALID,0.737891,
2010-09-02, 00:21:04,VALID,1001.19,VALID,0,VALID,93.5163,VALID,0,VALID,22.6867,VALID,124,VALID,0.928516,
2010-09-02, 00:22:04,VALID,1001.14,VALID,0,VALID,93.501,VALID,0,VALID,22.7257,VALID,106,VALID,0.867188,
2010-09-02, 00:23:04,VALID,1001.11,VALID,0,VALID,93.5239,VALID,0,VALID,22.7647,VALID,96,VALID,0.832031,
2010-09-02, 00:24:04,VALID,1001.11,VALID,0,VALID,93.5239,VALID,0,VALID,22.7842,VALID,91,VALID,0.657422,
2010-09-02, 00:25:04,VALID,1001.09,VALID,0,VALID,93.5086,VALID,0,VALID,22.7842,VALID,67,VALID,0.826953,
2010-09-02, 00:26:04,VALID,1001.13,VALID,0,VALID,93.4705,VALID,0,VALID,22.7647,VALID,60,VALID,1.04648,
2010-09-02, 00:27:04,VALID,1001.14,VALID,0,VALID,93.4476,VALID,0,VALID,22.7647,VALID,68,VALID,1.37656,
2010-09-02, 00:28:04,VALID,1001.12,VALID,0,VALID,93.3942,VALID,0,VALID,22.7647,VALID,65,VALID,1.10625,
2010-09-02, 00:29:04,VALID,1001.14,VALID,0,VALID,93.3255,VALID,0,VALID,22.7647,VALID,67,VALID,0.899609,
2010-09-02, 00:30:04,VALID,1001.13,VALID,0,VALID,93.2874,VALID,0,VALID,22.7647,VALID,68,VALID,0.974609,
2010-09-02, 00:31:04,VALID,1001.13,VALID,0,VALID,93.234,VALID,0,VALID,22.763,VALID,71,VALID,1.0418,
2010-09-02, 00:32:04,VALID,1001.12,VALID,0,VALID,93.1882,VALID,0,VALID,22.7825,VALID,64,VALID,0.954297,
2010-09-02, 00:33:04,VALID,1001.1,VALID,0,VALID,93.1119,VALID,0,VALID,22.8037,VALID,42,VALID,0.825781,
2010-09-02, 00:34:04,VALID,1001.09,VALID,0,VALID,93.0356,VALID,0,VALID,22.7842,VALID,42,VALID,0.370313,
2010-09-02, 00:35:04,VALID,1001.07,VALID,0,VALID,92.9364,VALID,0,VALID,22.7452,VALID,42,VALID,0.54375,
2010-09-02, 00:36:04,VALID,1001.06,VALID,0,VALID,92.8754,VALID,0,VALID,22.7647,VALID,42,VALID,0.610156,
2010-09-02, 00:37:04,VALID,1001.02,VALID,0,VALID,92.8677,VALID,0,VALID,22.7647,VALID,5,VALID,0.619922,
2010-09-02, 00:38:04,VALID,1001.01,VALID,0,VALID,92.8448,VALID,0,VALID,22.7452,VALID,341,VALID,0.728906,
2010-09-02, 00:39:04,VALID,1001,VALID,0,VALID,92.8448,VALID,0,VALID,22.7452,VALID,341,VALID,0.838672,
2010-09-02, 00:40:04,VALID,1000.98,VALID,0,VALID,92.7762,VALID,0,VALID,22.7062,VALID,347,VALID,1.03984,
2010-09-02, 00:41:04,VALID,1000.99,VALID,0,VALID,92.7457,VALID,0,VALID,22.7062,VALID,6,VALID,1.31523,
2010-09-02, 00:42:04,VALID,1000.96,VALID,0,VALID,92.6541,VALID,0,VALID,22.6477,VALID,12,VALID,1.26523,
2010-09-02, 00:43:04,VALID,1000.94,VALID,0,VALID,92.6541,VALID,0,VALID,22.6477,VALID,7,VALID,1.30117,
2010-09-02, 00:44:04,VALID,1000.95,VALID,0,VALID,92.6465,VALID,0,VALID,22.6477,VALID,357,VALID,1.2125,
2010-09-02, 00:45:04,VALID,1000.95,VALID,0,VALID,92.6999,VALID,0,VALID,22.6477,VALID,340,VALID,0.760938,
2010-09-02, 00:46:04,VALID,1000.95,VALID,0,VALID,92.7533,VALID,0,VALID,22.6689,VALID,312,VALID,0.713672,
2010-09-02, 00:47:04,VALID,1000.95,VALID,0,VALID,92.7838,VALID,0,VALID,22.6477,VALID,294,VALID,0.469922,
2010-09-02, 00:48:04,VALID,1000.95,VALID,0,VALID,92.8525,VALID,0,VALID,22.6672,VALID,289,VALID,0.335156,
2010-09-02, 00:49:04,VALID,1000.92,VALID,0,VALID,92.9288,VALID,0,VALID,22.6867,VALID,289,VALID,0.296875,
2010-09-02, 00:50:04,VALID,1000.92,VALID,0,VALID,92.9593,VALID,0,VALID,22.7062,VALID,289,VALID,0.0863281,
2010-09-02, 00:51:04,VALID,1000.91,VALID,0,VALID,93.0432,VALID,0,VALID,22.7062,VALID,289,VALID,0.0367187,
2010-09-02, 00:52:04,VALID,1000.86,VALID,0,VALID,93.0661,VALID,0,VALID,22.7062,VALID,289,VALID,0,
2010-09-02, 00:53:04,VALID,1000.89,VALID,0,VALID,93.0814,VALID,0,VALID,22.7257,VALID,256,VALID,0.292188,
2010-09-02, 00:54:04,VALID,1000.86,VALID,0,VALID,93.0737,VALID,0,VALID,22.7062,VALID,216,VALID,0.480078,
2010-09-02, 00:55:04,VALID,1000.85,VALID,0,VALID,93.089,VALID,0,VALID,22.7062,VALID,216,VALID,0.264844,
2010-09-02, 00:56:04,VALID,1000.85,VALID,0,VALID,93.089,VALID,0,VALID,22.6672,VALID,216,VALID,0.138672,
2010-09-02, 00:57:04,VALID,1000.87,VALID,0,VALID,93.0737,VALID,0,VALID,22.7062,VALID,216,VALID,0.1375,
2010-09-02, 00:58:04,VALID,1000.84,VALID,0,VALID,93.0737,VALID,0,VALID,22.7274,VALID,216,VALID,0,
2010-09-02, 00:59:04,VALID,1000.86,VALID,0,VALID,93.0966,VALID,0,VALID,22.7257,VALID,216,VALID,0.267188,
2010-09-02, 01:00:04,VALID,1000.86,VALID,0,VALID,93.089,VALID,0,VALID,22.7257,VALID,359,VALID,0.919922,
2010-09-02, 01:01:04,VALID,1000.91,VALID,0,VALID,93.0737,VALID,0,VALID,22.7452,VALID,17,VALID,1.04648,
2010-09-02, 01:02:04,VALID,1000.9,VALID,0,VALID,93.0203,VALID,0,VALID,22.7257,VALID,17,VALID,0.400391,
2010-09-02, 01:03:04,VALID,1000.92,VALID,0,VALID,92.9593,VALID,0,VALID,22.7647,VALID,208,VALID,1.34766,
2010-09-02, 01:04:04,VALID,1000.89,VALID,0,VALID,92.9593,VALID,0,VALID,22.8605,VALID,205,VALID,1.45977,
2010-09-02, 01:05:04,VALID,1000.86,VALID,0,VALID,92.9517,VALID,0,VALID,22.9403,VALID,215,VALID,1.12539,
2010-09-02, 01:06:04,VALID,1000.81,VALID,0,VALID,92.8906,VALID,0,VALID,22.9793,VALID,210,VALID,0.317578,
2010-09-02, 01:07:04,VALID,1000.79,VALID,0,VALID,92.7838,VALID,0,VALID,22.9793,VALID,196,VALID,0.272266,
2010-09-02, 01:08:04,VALID,1000.79,VALID,0,VALID,92.616,VALID,0,VALID,22.9598,VALID,186,VALID,0.599219,
2010-09-02, 01:09:04,VALID,1000.81,VALID,0,VALID,92.5244,VALID,0,VALID,22.9793,VALID,184,VALID,1.35469,
2010-09-02, 01:10:04,VALID,1000.84,VALID,0,VALID,92.4176,VALID,0,VALID,23.0183,VALID,188,VALID,1.02969,
2010-09-02, 01:11:04,VALID,1000.8,VALID,0,VALID,92.2879,VALID,0,VALID,23.0183,VALID,145,VALID,1.30898,
2010-09-02, 01:12:04,VALID,1000.77,VALID,0,VALID,91.8454,VALID,0,VALID,23.0006,VALID,133,VALID,0.9875,
2010-09-02, 01:13:04,VALID,1000.77,VALID,0,VALID,91.5936,VALID,0,VALID,22.9208,VALID,126,VALID,1.04648,
2010-09-02, 01:14:04,VALID,1000.79,VALID,0,VALID,91.5707,VALID,0,VALID,22.903,VALID,124,VALID,1.01406,
2010-09-02, 01:15:04,VALID,1000.78,VALID,0,VALID,91.4563,VALID,0,VALID,22.8427,VALID,124,VALID,0.546484,
2010-09-02, 01:16:04,VALID,1000.79,VALID,0,VALID,91.4334,VALID,0,VALID,22.7842,VALID,124,VALID,0.191406,
2010-09-02, 01:17:04,VALID,1000.77,VALID,0,VALID,91.5554,VALID,0,VALID,22.7664,VALID,190,VALID,1.20977,
2010-09-02, 01:18:04,VALID,1000.75,VALID,0,VALID,91.9827,VALID,0,VALID,22.8037,VALID,207,VALID,1.4,
2010-09-02, 01:19:04,VALID,1000.73,VALID,0,VALID,92.1658,VALID,0,VALID,22.8623,VALID,241,VALID,0.374219,
2010-09-02, 01:20:04,VALID,1000.73,VALID,0,VALID,92.204,VALID,0,VALID,22.8835,VALID,241,VALID,0.00195313,
2010-09-02, 01:21:04,VALID,1000.69,VALID,0,VALID,92.2116,VALID,0,VALID,22.8623,VALID,241,VALID,0.0015625,
2010-09-02, 01:22:04,VALID,1000.7,VALID,0,VALID,92.1506,VALID,0,VALID,22.8037,VALID,165,VALID,0.782812,
2010-09-02, 01:23:04,VALID,1000.68,VALID,0,VALID,92.1963,VALID,0,VALID,22.8037,VALID,87,VALID,0.945313,
2010-09-02, 01:24:04,VALID,1000.67,VALID,0,VALID,92.1277,VALID,0,VALID,22.7647,VALID,96,VALID,1.12539,
2010-09-02, 01:25:04,VALID,1000.68,VALID,0,VALID,92.0209,VALID,0,VALID,22.7257,VALID,97,VALID,0.858984,
2010-09-02, 01:26:04,VALID,1000.66,VALID,0,VALID,91.9903,VALID,0,VALID,22.6867,VALID,97,VALID,0.355859,
2010-09-02, 01:27:04,VALID,1000.63,VALID,0,VALID,91.9598,VALID,0,VALID,22.6672,VALID,97,VALID,0.195703,
2010-09-02, 01:28:04,VALID,1000.6,VALID,0,VALID,92.0056,VALID,0,VALID,22.6282,VALID,97,VALID,0.394141,
2010-09-02, 01:29:04,VALID,1000.59,VALID,0,VALID,92.0895,VALID,0,VALID,22.6087,VALID,350,VALID,0.354297,
2010-09-02, 01:30:04,VALID,1000.58,VALID,0,VALID,92.1811,VALID,0,VALID,22.5679,VALID,350,VALID,0.369531,
2010-09-02, 01:31:04,VALID,1000.56,VALID,0,VALID,92.2497,VALID,0,VALID,22.5501,VALID,350,VALID,0.404297,
2010-09-02, 01:32:04,VALID,1000.56,VALID,0,VALID,92.3489,VALID,0,VALID,22.5306,VALID,343,VALID,0.274219,
2010-09-02, 01:33:04,VALID,1000.57,VALID,0,VALID,92.4786,VALID,0,VALID,22.5484,VALID,343,VALID,0.201562,
2010-09-02, 01:34:04,VALID,1000.54,VALID,0,VALID,92.616,VALID,0,VALID,22.5892,VALID,116,VALID,0.697656,
2010-09-02, 01:35:04,VALID,1000.55,VALID,0,VALID,92.738,VALID,0,VALID,22.6282,VALID,90,VALID,1.17578,
2010-09-02, 01:36:04,VALID,1000.56,VALID,0,VALID,92.7151,VALID,0,VALID,22.6867,VALID,81,VALID,0.98125,
2010-09-02, 01:37:04,VALID,1000.53,VALID,0,VALID,92.4863,VALID,0,VALID,22.6672,VALID,54,VALID,0.794922,
2010-09-02, 01:38:04,VALID,1000.56,VALID,0,VALID,92.2574,VALID,0,VALID,22.6282,VALID,54,VALID,0.730078,
2010-09-02, 01:39:04,VALID,1000.54,VALID,0,VALID,92.1811,VALID,0,VALID,22.6282,VALID,54,VALID,0.542578,
2010-09-02, 01:40:04,VALID,1000.5,VALID,0,VALID,92.1429,VALID,0,VALID,22.5874,VALID,54,VALID,0.0925781,
2010-09-02, 01:41:04,VALID,1000.52,VALID,0,VALID,92.12,VALID,0,VALID,22.5892,VALID,54,VALID,0.0898438,
2010-09-02, 01:42:04,VALID,1000.56,VALID,0,VALID,92.1658,VALID,0,VALID,22.5892,VALID,356,VALID,0.548437,
2010-09-02, 01:43:04,VALID,1000.57,VALID,0,VALID,92.2192,VALID,0,VALID,22.5696,VALID,301,VALID,0.389844,
2010-09-02, 01:44:04,VALID,1000.62,VALID,0,VALID,92.2879,VALID,0,VALID,22.5696,VALID,301,VALID,0.205469,
2010-09-02, 01:45:04,VALID,1000.62,VALID,0,VALID,92.3566,VALID,0,VALID,22.5696,VALID,301,VALID,0.207813,
2010-09-02, 01:46:04,VALID,1000.65,VALID,0,VALID,92.4481,VALID,0,VALID,22.5892,VALID,170,VALID,0.514063,
2010-09-02, 01:47:04,VALID,1000.6,VALID,0,VALID,92.5091,VALID,0,VALID,22.5696,VALID,170,VALID,0.297656,
2010-09-02, 01:48:04,VALID,1000.57,VALID,0,VALID,92.5626,VALID,0,VALID,22.5892,VALID,170,VALID,0.460156,
2010-09-02, 01:49:04,VALID,1000.55,VALID,0,VALID,92.5778,VALID,0,VALID,22.6087,VALID,127,VALID,0.507422,
2010-09-02, 01:50:04,VALID,1000.55,VALID,0,VALID,92.5931,VALID,0,VALID,22.5874,VALID,97,VALID,0.704297,
2010-09-02, 01:51:04,VALID,1000.54,VALID,0,VALID,92.5931,VALID,0,VALID,22.6282,VALID,97,VALID,0.692578,
2010-09-02, 01:52:04,VALID,1000.52,VALID,0,VALID,92.5702,VALID,0,VALID,22.6087,VALID,97,VALID,0.53125,
2010-09-02, 01:53:04,VALID,1000.5,VALID,0,VALID,92.532,VALID,0,VALID,22.6087,VALID,97,VALID,0.480859,
2010-09-02, 01:54:04,VALID,1000.49,VALID,0,VALID,92.5168,VALID,0,VALID,22.5679,VALID,97,VALID,0.325,
2010-09-02, 01:55:04,VALID,1000.47,VALID,0,VALID,92.4557,VALID,0,VALID,22.5501,VALID,97,VALID,0.211719,
2010-09-02, 01:56:04,VALID,1000.44,VALID,0,VALID,92.471,VALID,0,VALID,22.5306,VALID,97,VALID,0.00273437,
2010-09-02, 01:57:04,VALID,1000.43,VALID,0,VALID,92.5015,VALID,0,VALID,22.5323,VALID,97,VALID,0.280859,
2010-09-02, 01:58:04,VALID,1000.42,VALID,0,VALID,92.5397,VALID,0,VALID,22.5306,VALID,114,VALID,0.400391,
2010-09-02, 01:59:04,VALID,1000.41,VALID,0,VALID,92.5931,VALID,0,VALID,22.5306,VALID,114,VALID,0.435937,
2010-09-02, 02:00:04,VALID,1000.37,VALID,0,VALID,92.6694,VALID,0,VALID,22.5306,VALID,153,VALID,0.489062,
2010-09-02, 02:01:04,VALID,1000.36,VALID,0,VALID,92.7457,VALID,0,VALID,22.5501,VALID,153,VALID,0.434766,
2010-09-02, 02:02:04,VALID,1000.33,VALID,0,VALID,92.7991,VALID,0,VALID,22.5696,VALID,153,VALID,0.162109,
2010-09-02, 02:03:04,VALID,1000.31,VALID,0,VALID,92.8143,VALID,0,VALID,22.5892,VALID,153,VALID,0.399609,
2010-09-02, 02:04:04,VALID,1000.33,VALID,0,VALID,92.822,VALID,0,VALID,22.6087,VALID,153,VALID,0.148828,
2010-09-02, 02:05:04,VALID,1000.34,VALID,0,VALID,92.7457,VALID,0,VALID,22.5892,VALID,153,VALID,0.259766,
2010-09-02, 02:06:04,VALID,1000.33,VALID,0,VALID,92.5931,VALID,0,VALID,22.5306,VALID,153,VALID,0.412109,
2010-09-02, 02:07:04,VALID,1000.33,VALID,0,VALID,92.3184,VALID,0,VALID,22.4509,VALID,152,VALID,0.547266,
2010-09-02, 02:08:04,VALID,1000.32,VALID,0,VALID,92.12,VALID,0,VALID,22.4136,VALID,152,VALID,0.376563,
2010-09-02, 02:09:04,VALID,1000.29,VALID,0,VALID,92.1734,VALID,0,VALID,22.3941,VALID,152,VALID,0.448828,
2010-09-02, 02:10:04,VALID,1000.25,VALID,0,VALID,92.3031,VALID,0,VALID,22.3746,VALID,152,VALID,0.538672,
2010-09-02, 02:11:04,VALID,1000.26,VALID,0,VALID,92.4557,VALID,0,VALID,22.3551,VALID,152,VALID,0.517187,
2010-09-02, 02:12:04,VALID,1000.29,VALID,0,VALID,92.6388,VALID,0,VALID,22.3551,VALID,152,VALID,0.480859,
2010-09-02, 02:13:04,VALID,1000.25,VALID,0,VALID,92.7762,VALID,0,VALID,22.3551,VALID,152,VALID,0.487891,
2010-09-02, 02:14:04,VALID,1000.25,VALID,0,VALID,92.8525,VALID,0,VALID,22.3356,VALID,152,VALID,0.530469,
2010-09-02, 02:15:04,VALID,1000.23,VALID,0,VALID,92.8754,VALID,0,VALID,22.2966,VALID,98,VALID,0.585547,
2010-09-02, 02:16:04,VALID,1000.23,VALID,0,VALID,92.8601,VALID,0,VALID,22.2186,VALID,61,VALID,0.669141,
2010-09-02, 02:17:04,VALID,1000.21,VALID,0,VALID,92.9364,VALID,0,VALID,22.2186,VALID,42,VALID,0.853516,
2010-09-02, 02:18:04,VALID,1000.18,VALID,0,VALID,93.0814,VALID,0,VALID,22.2771,VALID,25,VALID,0.952734,
2010-09-02, 02:19:04,VALID,1000.15,VALID,0,VALID,93.1882,VALID,0,VALID,22.2771,VALID,16,VALID,0.887109,
2010-09-02, 02:20:04,VALID,1000.16,VALID,0,VALID,93.2492,VALID,0,VALID,22.2576,VALID,16,VALID,0.814844,
2010-09-02, 02:21:04,VALID,1000.19,VALID,0,VALID,93.2874,VALID,0,VALID,22.2381,VALID,16,VALID,0.75,
2010-09-02, 02:22:04,VALID,1000.22,VALID,0,VALID,93.3179,VALID,0,VALID,22.1974,VALID,16,VALID,0.680469,
2010-09-02, 02:23:04,VALID,1000.23,VALID,0,VALID,93.3408,VALID,0,VALID,22.1795,VALID,16,VALID,0.583594,
2010-09-02, 02:24:04,VALID,1000.25,VALID,0,VALID,93.3484,VALID,0,VALID,22.1389,VALID,16,VALID,0.269531,
2010-09-02, 02:25:04,VALID,1000.27,VALID,0,VALID,93.3713,VALID,0,VALID,22.0998,VALID,16,VALID,0.232031,
2010-09-02, 02:26:04,VALID,1000.25,VALID,0,VALID,93.3942,VALID,0,VALID,22.1015,VALID,16,VALID,0.0824219,
2010-09-02, 02:27:04,VALID,1000.28,VALID,0,VALID,93.4171,VALID,0,VALID,22.1405,VALID,16,VALID,0.694922,
2010-09-02, 02:28:04,VALID,1000.31,VALID,0,VALID,93.4628,VALID,0,VALID,22.2381,VALID,190,VALID,0.757422,
2010-09-02, 02:29:04,VALID,1000.26,VALID,0,VALID,93.5391,VALID,0,VALID,22.2966,VALID,190,VALID,0.585547,
2010-09-02, 02:30:04,VALID,1000.25,VALID,0,VALID,93.5773,VALID,0,VALID,22.3356,VALID,190,VALID,0.0960938,
2010-09-02, 02:31:04,VALID,1000.24,VALID,0,VALID,93.6002,VALID,0,VALID,22.3551,VALID,190,VALID,0.0878906,
2010-09-02, 02:32:04,VALID,1000.23,VALID,0,VALID,93.6154,VALID,0,VALID,22.3746,VALID,190,VALID,0,
2010-09-02, 02:33:04,VALID,1000.21,VALID,0,VALID,93.6307,VALID,0,VALID,22.3941,VALID,190,VALID,0,
2010-09-02, 02:34:04,VALID,1000.17,VALID,0,VALID,93.6307,VALID,0,VALID,22.4136,VALID,190,VALID,0,
2010-09-02, 02:35:04,VALID,1000.18,VALID,0,VALID,93.6536,VALID,0,VALID,22.4136,VALID,190,VALID,0,
2010-09-02, 02:36:04,VALID,1000.16,VALID,0,VALID,93.6612,VALID,0,VALID,22.4136,VALID,190,VALID,0,
2010-09-02, 02:37:04,VALID,1000.13,VALID,0,VALID,93.6536,VALID,0,VALID,22.4331,VALID,190,VALID,0.529688,
2010-09-02, 02:38:04,VALID,1000.13,VALID,0,VALID,93.6688,VALID,0,VALID,22.4331,VALID,190,VALID,0.469922,
2010-09-02, 02:39:04,VALID,1000.14,VALID,0,VALID,93.6383,VALID,0,VALID,22.4704,VALID,190,VALID,0.233594,
2010-09-02, 02:40:04,VALID,1000.14,VALID,0,VALID,93.6688,VALID,0,VALID,22.4509,VALID,190,VALID,0,
2010-09-02, 02:41:04,VALID,1000.11,VALID,0,VALID,93.6383,VALID,0.112286,VALID,22.4704,VALID,190,VALID,0,
2010-09-02, 02:42:04,VALID,1000.1,VALID,0,VALID,93.646,VALID,0,VALID,22.4721,VALID,190,VALID,0.300781,
2010-09-02, 02:43:04,VALID,1000.07,VALID,0,VALID,93.6307,VALID,0,VALID,22.4916,VALID,190,VALID,0.351563,
2010-09-02, 02:44:04,VALID,1000.08,VALID,0,VALID,93.6383,VALID,0,VALID,22.4916,VALID,190,VALID,0.347266,
2010-09-02, 02:45:04,VALID,1000.02,VALID,0,VALID,93.6154,VALID,0.112286,VALID,22.4899,VALID,190,VALID,0.212891,
2010-09-02, 02:46:04,VALID,1000,VALID,0,VALID,93.6002,VALID,0,VALID,22.4704,VALID,190,VALID,0,
2010-09-02, 02:47:04,VALID,999.991,VALID,0,VALID,93.5926,VALID,0,VALID,22.4916,VALID,190,VALID,0,
2010-09-02, 02:48:04,VALID,999.984,VALID,0,VALID,93.5468,VALID,0.112286,VALID,22.3924,VALID,323,VALID,0.28125,
2010-09-02, 02:49:04,VALID,999.964,VALID,0,VALID,93.4781,VALID,0,VALID,22.3339,VALID,335,VALID,0.752344,
2010-09-02, 02:50:04,VALID,999.953,VALID,0,VALID,93.4323,VALID,0,VALID,22.2559,VALID,335,VALID,0.594141,
2010-09-02, 02:51:04,VALID,999.943,VALID,0,VALID,93.3789,VALID,0,VALID,22.2169,VALID,335,VALID,0.486328,
2010-09-02, 02:52:04,VALID,999.95,VALID,0,VALID,93.3789,VALID,0,VALID,22.1974,VALID,335,VALID,0.116016,
2010-09-02, 02:53:04,VALID,999.951,VALID,0,VALID,93.3866,VALID,0,VALID,22.1779,VALID,335,VALID,0.270703,
2010-09-02, 02:54:04,VALID,999.966,VALID,0,VALID,93.3713,VALID,0,VALID,22.1584,VALID,335,VALID,0.423047,
2010-09-02, 02:55:04,VALID,999.991,VALID,0,VALID,93.3866,VALID,0,VALID,22.1389,VALID,335,VALID,0.472656,
2010-09-02, 02:56:04,VALID,999.974,VALID,0,VALID,93.3713,VALID,0,VALID,22.0803,VALID,335,VALID,0.555078,
2010-09-02, 02:57:04,VALID,999.982,VALID,0,VALID,93.356,VALID,0,VALID,22.0218,VALID,335,VALID,0.341016,
2010-09-02, 02:58:04,VALID,999.963,VALID,0,VALID,93.3789,VALID,0,VALID,22.0023,VALID,335,VALID,0.39375,
2010-09-02, 02:59:04,VALID,999.933,VALID,0,VALID,93.3789,VALID,0,VALID,21.9633,VALID,342,VALID,0.781641,
2010-09-02, 03:00:04,VALID,999.941,VALID,0,VALID,93.4552,VALID,0,VALID,22.0235,VALID,22,VALID,0.902734,
2010-09-02, 03:01:04,VALID,999.932,VALID,0,VALID,93.5239,VALID,0,VALID,22.0625,VALID,45,VALID,0.945313,
2010-09-02, 03:02:04,VALID,999.913,VALID,0,VALID,93.5544,VALID,0,VALID,22.0235,VALID,46,VALID,0.903125,
2010-09-02, 03:03:04,VALID,999.906,VALID,0,VALID,93.5773,VALID,0,VALID,21.9828,VALID,56,VALID,0.985156,
2010-09-02, 03:04:04,VALID,999.903,VALID,0,VALID,93.6078,VALID,0,VALID,22.0235,VALID,64,VALID,1.03672,
2010-09-02, 03:05:04,VALID,999.889,VALID,0,VALID,93.6231,VALID,0.112286,VALID,22.0023,VALID,68,VALID,0.837891,
2010-09-02, 03:06:04,VALID,999.849,VALID,0,VALID,93.646,VALID,0,VALID,22.0218,VALID,68,VALID,0.620703,
2010-09-02, 03:07:04,VALID,999.841,VALID,0,VALID,93.6383,VALID,0,VALID,22.0218,VALID,68,VALID,0.454297,
2010-09-02, 03:08:04,VALID,999.836,VALID,0,VALID,93.6154,VALID,0,VALID,22.0023,VALID,68,VALID,0.305469,
2010-09-02, 03:09:04,VALID,999.823,VALID,0,VALID,93.6231,VALID,0,VALID,22.004,VALID,68,VALID,0.369141,
2010-09-02, 03:10:04,VALID,999.804,VALID,0,VALID,93.6078,VALID,0,VALID,21.9845,VALID,68,VALID,0.497266,
2010-09-02, 03:11:04,VALID,999.846,VALID,0,VALID,93.5849,VALID,0,VALID,21.965,VALID,68,VALID,0.541797,
2010-09-02, 03:12:04,VALID,999.842,VALID,0,VALID,93.5773,VALID,0,VALID,21.9455,VALID,68,VALID,0.406641,
2010-09-02, 03:13:04,VALID,999.829,VALID,0,VALID,93.6078,VALID,0,VALID,21.926,VALID,68,VALID,0.241406,
2010-09-02, 03:14:04,VALID,999.856,VALID,0,VALID,93.5926,VALID,0,VALID,21.926,VALID,68,VALID,0.223047,
2010-09-02, 03:15:04,VALID,999.8,VALID,0,VALID,93.5697,VALID,0,VALID,21.926,VALID,95,VALID,0.454297,
2010-09-02, 03:16:04,VALID,999.778,VALID,0,VALID,93.6307,VALID,0,VALID,21.9243,VALID,96,VALID,0.554297,
2010-09-02, 03:17:04,VALID,999.752,VALID,0,VALID,93.6307,VALID,0,VALID,21.9845,VALID,96,VALID,0.285156,
2010-09-02, 03:18:04,VALID,999.705,VALID,0,VALID,93.646,VALID,0,VALID,21.965,VALID,96,VALID,0.105078,
2010-09-02, 03:19:04,VALID,999.706,VALID,0,VALID,93.646,VALID,0,VALID,22.0023,VALID,96,VALID,0.00859375,
2010-09-02, 03:20:04,VALID,999.669,VALID,0,VALID,93.6917,VALID,0,VALID,22.0023,VALID,96,VALID,0.00429688,
2010-09-02, 03:21:04,VALID,999.662,VALID,0,VALID,93.6917,VALID,0.112286,VALID,22.0235,VALID,96,VALID,0,
2010-09-02, 03:22:04,VALID,999.678,VALID,0,VALID,93.7223,VALID,0,VALID,22.0235,VALID,96,VALID,0.301953,
2010-09-02, 03:23:04,VALID,999.659,VALID,0,VALID,93.7223,VALID,0,VALID,21.9828,VALID,96,VALID,0.360938,
2010-09-02, 03:24:04,VALID,999.684,VALID,0,VALID,93.707,VALID,0,VALID,22.004,VALID,96,VALID,0.453125,
2010-09-02, 03:25:04,VALID,999.688,VALID,0,VALID,93.7299,VALID,0,VALID,22.0235,VALID,96,VALID,0.483594,
2010-09-02, 03:26:04,VALID,999.722,VALID,0,VALID,93.7451,VALID,0,VALID,22.004,VALID,96,VALID,0.503516,
2010-09-02, 03:27:04,VALID,999.692,VALID,0,VALID,93.768,VALID,0,VALID,22.0235,VALID,96,VALID,0.494141,
2010-09-02, 03:28:04,VALID,999.718,VALID,0,VALID,93.7757,VALID,0,VALID,21.9828,VALID,96,VALID,0.553906,
2010-09-02, 03:29:04,VALID,999.722,VALID,0,VALID,93.768,VALID,0,VALID,22.0235,VALID,96,VALID,0.542578,
2010-09-02, 03:30:04,VALID,999.708,VALID,0,VALID,93.768,VALID,0,VALID,22.0625,VALID,96,VALID,0.335938,
2010-09-02, 03:31:04,VALID,999.712,VALID,0,VALID,93.7909,VALID,0,VALID,22.0413,VALID,96,VALID,0.460938,
2010-09-02, 03:32:04,VALID,999.731,VALID,0,VALID,93.7985,VALID,0,VALID,22.0625,VALID,96,VALID,0.418359,
2010-09-02, 03:33:04,VALID,999.743,VALID,0,VALID,93.768,VALID,0,VALID,22.082,VALID,96,VALID,0.316797,
2010-09-02, 03:34:04,VALID,999.713,VALID,0,VALID,93.7757,VALID,0,VALID,22.043,VALID,96,VALID,0.00195313,
2010-09-02, 03:35:04,VALID,999.734,VALID,0,VALID,93.768,VALID,0,VALID,22.0023,VALID,96,VALID,0.225391,
2010-09-02, 03:36:04,VALID,999.755,VALID,0,VALID,93.768,VALID,0.112286,VALID,22.0023,VALID,96,VALID,0.00351562,
2010-09-02, 03:37:04,VALID,999.744,VALID,0,VALID,93.7451,VALID,0,VALID,22.004,VALID,96,VALID,0.250391,
2010-09-02, 03:38:04,VALID,999.74,VALID,0,VALID,93.768,VALID,0,VALID,22.043,VALID,96,VALID,0.0609375,
2010-09-02, 03:39:04,VALID,999.775,VALID,0,VALID,93.7451,VALID,0,VALID,22.0218,VALID,96,VALID,0,
2010-09-02, 03:40:04,VALID,999.775,VALID,0,VALID,93.7604,VALID,0,VALID,22.0625,VALID,96,VALID,0,
2010-09-02, 03:41:04,VALID,999.783,VALID,0,VALID,93.7757,VALID,0,VALID,22.0625,VALID,96,VALID,0.0664063,
2010-09-02, 03:42:04,VALID,999.789,VALID,0,VALID,93.768,VALID,0,VALID,22.082,VALID,96,VALID,0,
2010-09-02, 03:43:04,VALID,999.752,VALID,0,VALID,93.7604,VALID,0,VALID,22.082,VALID,96,VALID,0,
2010-09-02, 03:44:04,VALID,999.724,VALID,0,VALID,93.7757,VALID,0,VALID,22.1015,VALID,96,VALID,0.00273437,
2010-09-02, 03:45:04,VALID,999.756,VALID,0,VALID,93.768,VALID,0,VALID,22.0803,VALID,96,VALID,0,
2010-09-02, 03:46:04,VALID,999.744,VALID,0,VALID,93.7909,VALID,0,VALID,22.121,VALID,96,VALID,0,